Location: Eaton
(41.3139°N, 82.0207°W)
Time: 12:40:38
(UTC+00:00)

Meteor 1-28 Rocket - Pass Details

Date: 17 June 2021
Orbit: 502 x 523 km, 97.4° (Epoch: 26 July)

Event Time Altitude Azimuth Distance (km) Brightness Sun altitude
Exits shadow 08:18:23 20° 186° (S) 1,229 4.6 -14.3°
Maximum altitude 08:20:48 58° 260° (W) 614 3.3 -14.0°
Drops below altitude 10° 08:24:34 10° 340° (NNW) 1,768 6.3 -13.6°
Sets 08:26:43 0° 344° (NNW) 2,662 7.3 -13.3°
